Date String (YYYY-MM-DD hh:mm:ss) UTC,Instrument flags,Ambient pressure (hPa),Sample flow (lpm),Bypass flow (lpm),Sample temperature (°C),Ambient temperature (°C),ASC tube jacket temperature (°C),LED temperature (°C),Box temperature (°C),Sample RH (%),Span deviation,Mass concentration (μg/m³),Mass concentration (μg/m³),Mass concentration (μg/m³)
DateTimeUTC,F1_M11,P_M11,Q1_M11,Q2_M11,T1_M11,T2_M11,T3_M11,T4_M11,T5_M11,U1_M11,ZSPAN_M11,X0_M11,X2_M11,X1_M11
2022-08-11 08:00:00,,0832.1,4.99,0.00,29.3,27.1,00.0,38.2,31.1,25.1,0000.0,0015.73,0006.27,0004.82
2022-08-11 08:01:00,,0832.1,5.01,0.00,29.3,27.3,00.0,38.2,31.1,24.9,0000.0,0015.72,0006.29,0004.82
2022-08-11 08:02:00,,0832.1,4.99,0.00,29.3,27.5,00.0,38.2,31.1,24.9,0000.0,0015.71,0006.33,0004.82
2022-08-11 08:03:00,,0832.0,5.00,0.00,29.3,27.6,00.0,38.2,31.2,24.9,0000.0,0015.20,0006.37,0004.81
2022-08-11 08:04:00,,0832.1,5.00,0.00,29.3,27.8,00.0,38.2,31.2,24.9,0000.0,0015.02,0006.35,0004.82
2022-08-11 08:05:00,,0832.1,5.00,0.00,29.3,27.9,00.0,38.2,31.3,24.7,0000.0,0015.49,0006.24,0004.82
2022-08-11 08:06:00,,0832.1,5.00,0.00,29.4,28.0,00.0,38.2,31.3,24.6,0000.0,0015.29,0006.29,0004.83
2022-08-11 08:07:00,,0832.1,5.00,0.00,29.4,28.2,00.0,38.2,31.3,24.5,0000.0,0015.18,0006.34,0004.85
2022-08-11 08:08:00,,0832.1,5.00,0.00,29.4,28.2,00.0,38.2,31.4,24.4,0000.0,0015.69,0006.30,0004.87
2022-08-11 08:09:00,,0832.1,4.98,0.00,29.4,28.3,00.0,38.2,31.4,24.3,0000.0,0015.14,0006.26,0004.88
2022-08-11 08:10:00,,0832.0,5.00,0.00,29.5,28.4,00.0,38.2,31.4,24.2,0000.0,0015.33,0006.32,0004.90
2022-08-11 08:11:00,,0832.1,5.01,0.00,29.5,28.5,00.0,38.3,31.5,24.2,0000.0,0015.15,0006.25,0004.90
2022-08-11 08:12:00,,0832.0,4.99,0.00,29.5,28.5,00.0,38.3,31.5,24.4,0000.0,0015.04,0006.20,0004.93
2022-08-11 08:13:00,,0832.0,5.01,0.00,29.6,28.6,00.0,38.3,31.6,24.4,0000.0,0015.10,0006.24,0004.95
2022-08-11 08:14:00,,0832.0,5.01,0.00,29.6,28.6,00.0,38.3,31.6,24.3,0000.0,0015.08,0006.21,0004.97
2022-08-11 08:15:00,,0832.0,4.99,0.00,29.6,28.7,00.0,38.3,31.6,24.1,0000.0,0015.62,0006.25,0004.99
2022-08-11 08:16:00,,0832.0,4.99,0.00,29.6,28.7,00.0,38.4,31.6,24.1,0000.0,0014.69,0006.28,0005.02
2022-08-11 08:17:00,,0832.0,5.01,0.00,29.7,28.7,00.0,38.4,31.6,24.0,0000.0,0014.09,0006.25,0005.03
2022-08-11 08:18:00,,0831.9,5.01,0.00,29.6,28.0,00.0,38.3,31.4,23.9,0000.0,0013.86,0006.20,0005.04
2022-08-11 08:19:00,,0832.0,4.99,0.00,29.6,27.5,00.0,38.3,31.3,24.0,0000.0,0012.62,0006.20,0005.03
2022-08-11 08:20:00,,0832.0,5.01,0.00,29.5,27.4,00.0,38.3,31.3,24.0,0000.0,0012.35,0006.26,0005.03
2022-08-11 08:21:00,,0831.9,4.99,0.00,29.5,27.4,00.0,38.3,31.2,24.0,0000.0,0012.72,0006.24,0005.02
2022-08-11 08:22:00,,0832.0,5.01,0.00,29.4,27.6,00.0,38.3,31.2,24.0,0000.0,0013.26,0006.27,0005.03
2022-08-11 08:23:00,,0831.9,4.99,0.00,29.4,27.7,00.0,38.3,31.2,23.9,0000.0,0013.48,0006.30,0005.01
2022-08-11 08:24:00,,0831.9,5.00,0.00,29.4,27.8,00.0,38.3,31.3,23.9,0000.0,0013.49,0006.25,0005.00
2022-08-11 08:25:00,,0832.0,5.00,0.00,29.4,27.9,00.0,38.3,31.4,23.7,0000.0,0013.76,0006.24,0004.99
2022-08-11 08:26:00,,0832.0,5.00,0.00,29.5,28.1,00.0,38.3,31.4,23.6,0000.0,0012.78,0006.16,0004.97
2022-08-11 08:27:00,,0832.0,5.00,0.00,29.5,28.2,00.0,38.3,31.4,23.6,0000.0,0012.89,0006.14,0004.95
2022-08-11 08:28:00,,0831.9,4.99,0.00,29.5,28.3,00.0,38.3,31.4,23.2,0000.0,0012.97,0006.14,0004.94
2022-08-11 08:29:00,,0831.8,5.00,0.00,29.5,28.4,00.0,38.3,31.5,23.1,0000.0,0012.66,0006.14,0004.92
2022-08-11 08:30:00,,0831.8,5.00,0.00,29.6,28.4,00.0,38.3,31.5,23.1,0000.0,0012.45,0006.11,0004.92
2022-08-11 08:31:00,,0831.8,5.00,0.00,29.6,28.5,00.0,38.3,31.6,23.3,0000.0,0012.42,0006.11,0004.92
2022-08-11 08:32:00,,0831.8,4.99,0.00,29.6,28.6,00.0,38.4,31.6,23.2,0000.0,0013.11,0006.06,0004.91
2022-08-11 08:33:00,,0831.8,4.99,0.00,29.6,28.6,00.0,38.4,31.6,22.9,0000.0,0012.92,0006.02,0004.90
2022-08-11 08:34:00,,0831.8,5.00,0.00,29.7,28.7,00.0,38.4,31.6,22.9,0000.0,0012.95,0006.05,0004.90
2022-08-11 08:35:00,,0831.9,5.00,0.00,29.7,28.7,00.0,38.4,31.7,22.9,0000.0,0013.61,0006.09,0004.89
2022-08-11 08:36:00,,0831.9,5.01,0.00,29.7,28.8,00.0,38.4,31.7,23.0,0000.0,0014.18,0006.06,0004.89
2022-08-11 08:37:00,,0831.9,5.00,0.00,29.7,28.6,00.0,38.4,31.6,22.9,0000.0,0014.44,0006.04,0004.89
2022-08-11 08:38:00,,0831.9,5.01,0.00,29.7,27.8,00.0,38.4,31.4,22.9,0000.0,0015.33,0006.05,0004.89
2022-08-11 08:39:00,,0831.8,5.01,0.00,29.7,27.5,00.0,38.4,31.4,23.0,0000.0,0015.50,0006.06,0004.88
2022-08-11 08:40:00,,0831.8,4.99,0.00,29.6,27.5,00.0,38.4,31.3,23.3,0000.0,0015.64,0006.04,0004.87
2022-08-11 08:41:00,,0831.7,5.01,0.00,29.5,27.5,00.0,38.4,31.3,23.3,0000.0,0016.01,0006.11,0004.87
2022-08-11 08:42:00,,0831.8,4.99,0.00,29.5,27.6,00.0,38.3,31.3,23.4,0000.0,0016.23,0006.10,0004.84
2022-08-11 08:43:00,,0831.8,5.01,0.00,29.5,27.8,00.0,38.3,31.3,24.4,0000.0,0016.00,0006.13,0004.84
2022-08-11 08:44:00,,0831.8,4.99,0.00,29.5,27.9,00.0,38.3,31.3,24.0,0000.0,0015.68,0006.18,0004.84
2022-08-11 08:45:00,,0831.9,5.00,0.00,29.5,28.0,00.0,38.3,31.4,24.0,0000.0,0015.54,0006.14,0004.84
2022-08-11 08:46:00,,0831.9,5.00,0.00,29.5,28.1,00.0,38.3,31.4,23.2,0000.0,0015.24,0006.09,0004.83
2022-08-11 08:47:00,,0831.9,5.00,0.00,29.5,28.2,00.0,38.4,31.4,24.1,0000.0,0014.06,0006.12,0004.82
2022-08-11 08:48:00,,0831.9,5.00,0.00,29.6,28.3,00.0,38.4,31.5,23.8,0000.0,0014.47,0006.21,0004.82
2022-08-11 08:49:00,,0832.0,5.00,0.00,29.6,28.4,00.0,38.4,31.5,23.4,0000.0,0015.40,0006.23,0004.82
2022-08-11 08:50:00,,0831.9,5.00,0.00,29.6,28.5,00.0,38.4,31.6,23.7,0000.0,0016.17,0006.25,0004.83
2022-08-11 08:51:00,,0831.9,5.00,0.00,29.6,28.6,00.0,38.4,31.6,23.3,0000.0,0016.29,0006.28,0004.83
2022-08-11 08:52:00,,0831.9,5.00,0.00,29.7,28.6,00.0,38.4,31.6,23.3,0000.0,0016.30,0006.24,0004.84
2022-08-11 08:53:00,,0832.0,5.00,0.00,29.7,28.7,00.0,38.4,31.7,23.5,0000.0,0016.61,0006.23,0004.85
2022-08-11 08:54:00,,0832.0,5.00,0.00,29.7,28.7,00.0,38.4,31.7,23.5,0000.0,0016.26,0006.16,0004.84
2022-08-11 08:55:00,,0832.0,4.99,0.00,29.7,28.8,00.0,38.5,31.7,23.4,0000.0,0015.54,0006.11,0004.83
2022-08-11 08:56:00,,0832.0,5.00,0.00,29.8,28.8,00.0,38.5,31.7,23.4,0000.0,0015.66,0006.14,0004.84
2022-08-11 08:57:00,,0832.0,5.00,0.00,29.8,28.7,00.0,38.5,31.7,23.6,0000.0,0015.68,0006.20,0004.85
2022-08-11 08:58:00,,0831.9,5.01,0.00,29.8,28.0,00.0,38.5,31.6,23.6,0000.0,0015.77,0006.21,0004.87
2022-08-11 08:59:00,,0831.9,4.99,0.00,29.7,27.5,00.0,38.4,31.5,23.7,0000.0,0015.50,0006.16,0004.88
